Data for 05/03/2017

Time Sea-Level Adjusted Pressure Absolute Pressure Temperature Relative Humidity Dew Point   
(mb) (inHg) (mb) (inHg) (C) (F) (%) (C) (F)
00:05 1025 30.27 854 25.22 5 40.9 48 -5.1 22.9
00:10 1025 30.27 854 25.22 4.5 40.1 52 -4.5 23.9
00:15 1025 30.27 854 25.22 4.1 39.3 53 -4.6 23.7
00:20 1025 30.27 854 25.22 3.9 39 53 -4.7 23.5
00:25 1025 30.27 854 25.22 3.8 38.8 53 -4.8 23.3
00:30 1025 30.27 854 25.22 3.7 38.6 54 -4.7 23.6
00:35 1025 30.27 854 25.22 3.6 38.5 53 -5 23
00:40 1025 30.27 854 25.22 3.6 38.5 55 -4.7 23.6
00:45 1025 30.27 854 25.22 3.5 38.4 56 -4.4 24.1
00:50 1025 30.27 854 25.22 3.4 38.1 59 -3.8 25.1
00:55 1025 30.27 854 25.22 3.1 37.6 63 -3.2 26.2
01:00 1025 30.27 854 25.22 2.8 37 63 -3.5 25.8
01:05 1025 30.27 854 25.22 2.6 36.6 65 -3.4 25.9
01:10 1025 30.27 854 25.22 2.4 36.3 65 -3.6 25.6
01:15 1025 30.27 854 25.22 2.2 36 65 -3.6 25.6
01:20 1025 30.27 854 25.22 2.3 36.1 65 -3.6 25.4
01:25 1025 30.27 854 25.22 2.3 36.2 65 -3.6 25.6
01:30 1025 30.27 854 25.22 2.3 36.2 65 -3.6 25.6
01:35 1025 30.27 854 25.22 2.3 36.1 65 -3.6 25.5
01:40 1025 30.27 854 25.22 2.2 35.9 66 -3.6 25.5
01:45 1025 30.27 854 25.22 1.9 35.5 67 -3.6 25.4
01:50 1025 30.27 854 25.22 1.7 35.1 68 -3.6 25.6
01:55 1025 30.27 854 25.22 1.4 34.5 69 -3.6 25.5
02:00 1025 30.27 854 25.22 1.2 34.2 71 -3.5 25.6
02:05 1025 30.27 854 25.22 0.5 32.9 74 -3.6 25.6
02:10 1025 30.27 854 25.22 0.4 32.7 71 -4.3 24.3
02:15 1025 30.27 854 25.22 0.7 33.3 69 -4.3 24.3
02:20 1025 30.27 854 25.22 0.8 33.4 69 -4.2 24.4
02:25 1025 30.27 854 25.22 0.6 33.1 70 -4.2 24.5
02:30 1025 30.27 854 25.22 0.5 32.8 71 -4.2 24.5
02:35 1025 30.27 854 25.22 0.4 32.7 71 -4.2 24.4
02:40 1025 30.27 854 25.22 0.4 32.7 71 -4.3 24.3
02:45 1025 30.27 854 25.22 0.4 32.7 71 -4.3 24.2
02:50 1025 30.27 854 25.22 0.4 32.7 71 -4.4 24.2
02:55 1025 30.27 854 25.22 0.3 32.5 71 -4.3 24.3
03:00 1025 30.27 854 25.22 0.2 32.4 72 -4.2 24.4
03:05 1025 30.27 855 25.25 0.2 32.4 72 -4.2 24.5
03:10 1025 30.27 855 25.25 0.2 32.4 72 -4.2 24.5
03:15 1025 30.27 855 25.25 0.2 32.4 72 -4.3 24.3
03:20 1025 30.27 855 25.25 0.3 32.5 72 -4.2 24.4
03:25 1025 30.27 855 25.25 0.4 32.7 72 -4.2 24.5
03:30 1025 30.27 855 25.25 0.2 32.3 73 -4.1 24.6
03:35 1025 30.27 855 25.25 0.1 32.1 73 -4.2 24.4
03:40 1025 30.27 855 25.25 -0 32 73 -4.3 24.2
03:45 1025 30.27 855 25.25 -0 32 72 -4.4 24.1
03:50 1025 30.27 855 25.25 -0.1 31.9 73 -4.4 24.1
03:55 1025 30.27 855 25.25 -0.2 31.7 73 -4.4 24.1
04:00 1025 30.27 855 25.25 -0.2 31.7 74 -4.3 24.2
04:05 1025 30.27 855 25.25 -0.2 31.6 74 -4.3 24.2
04:10 1025 30.27 855 25.25 -0.2 31.6 74 -4.4 24.1
04:15 1025 30.27 855 25.25 -0.3 31.4 75 -4.3 24.3
04:20 1025 30.27 855 25.25 -0.5 31.1 74 -4.5 23.9
04:25 1025 30.27 855 25.25 -0.4 31.2 74 -4.5 23.9
04:30 1025 30.27 855 25.25 -0.3 31.4 73 -4.7 23.6
04:35 1025 30.27 855 25.25 -0.2 31.6 73 -4.5 23.9
04:40 1025 30.27 855 25.25 -0.3 31.4 74 -4.5 23.9
04:45 1025 30.27 855 25.25 -0.4 31.3 74 -4.5 23.9
04:50 1025 30.27 855 25.25 -0.5 31.2 74 -4.6 23.8
04:55 1025 30.27 855 25.25 -0.5 31 75 -4.5 24
05:00 1025 30.27 855 25.25 -0.6 31 74 -4.6 23.8
05:05 1025 30.27 855 25.25 -0.5 31 74 -4.5 23.8
05:10 1025 30.27 855 25.25 -0.4 31.2 73 -4.7 23.5
05:15 1025 30.27 855 25.25 -0.3 31.5 73 -4.6 23.7
05:20 1025 30.27 855 25.25 -0.4 31.3 72 -4.8 23.4
05:25 1025 30.27 855 25.25 -0.3 31.5 73 -4.6 23.8
05:30 1025 30.27 855 25.25 -0.4 31.3 73 -4.6 23.7
05:35 1025 30.27 855 25.25 -0.4 31.4 72 -4.8 23.4
05:40 1025 30.27 855 25.25 -0.1 31.8 71 -4.7 23.6
05:45 1025 30.27 855 25.25 0 32 71 -4.6 23.7
05:50 1025 30.27 855 25.25 0 32 71 -4.6 23.7
05:55 1025 30.27 855 25.25 0.2 32.3 70 -4.7 23.6
06:00 1025 30.27 855 25.25 0.4 32.8 69 -4.7 23.5
06:05 1025 30.27 855 25.25 0.8 33.4 67 -4.6 23.7
06:10 1025 30.27 855 25.25 1 33.8 66 -4.6 23.7
06:15 1025 30.27 855 25.25 1.2 34.1 65 -4.6 23.7
06:20 1025 30.27 855 25.25 1.5 34.6 64 -4.7 23.6
06:25 1026 30.3 855 25.25 1.7 35.1 62 -4.7 23.6
06:30 1026 30.3 855 25.25 2.3 36.1 60 -4.7 23.6
06:35 1025 30.27 855 25.25 2.9 37.2 58 -4.6 23.8
06:40 1025 30.27 855 25.25 3 37.4 58 -4.5 23.8
06:45 1026 30.3 855 25.25 3.5 38.4 56 -4.4 24.1
06:50 1026 30.3 855 25.25 4 39.2 54 -4.5 23.9
06:55 1026 30.3 855 25.25 4.3 39.7 53 -4.4 24
07:00 1026 30.3 855 25.25 4.8 40.6 53 -4 24.9
07:05 1026 30.3 855 25.25 4.8 40.6 52 -4.3 24.3
07:10 1026 30.3 855 25.25 5 41 51 -4.4 24.1
07:15 1026 30.3 855 25.25 5.2 41.4 49 -4.5 23.8
07:20 1026 30.3 855 25.25 5.5 41.8 48 -4.6 23.7
07:25 1026 30.3 855 25.25 6.2 43.1 46 -4.6 23.7
07:30 1026 30.3 855 25.25 6.3 43.4 46 -4.5 23.8
07:35 1026 30.3 855 25.25 6.1 43 47 -4.4 24.1
07:40 1026 30.3 855 25.25 6 42.7 45 -4.9 23.1
07:45 1026 30.3 855 25.25 6.5 43.6 44 -4.8 23.3
07:50 1026 30.3 855 25.25 7 44.5 42 -4.9 23.1
07:55 1026 30.3 855 25.25 7.2 45 42 -4.9 23.2
08:00 1026 30.3 855 25.25 7.6 45.6 41 -4.9 23.2
08:05 1026 30.3 855 25.25 7.2 45 43 -4.5 23.9
08:10 1026 30.3 855 25.25 7.2 44.9 41 -5.2 22.6
08:15 1026 30.3 855 25.25 7.6 45.7 39 -5.3 22.5
08:20 1026 30.3 855 25.25 7.9 46.2 40 -5 23.1
08:25 1026 30.3 855 25.25 8.2 46.8 40 -4.6 23.7
08:30 1026 30.3 855 25.25 8.1 46.5 41 -4.4 24.2
08:35 1026 30.3 855 25.25 8.1 46.6 40 -4.8 23.3
08:40 1026 30.3 855 25.25 8.7 47.6 38 -4.8 23.4
08:45 1026 30.3 855 25.25 8.8 47.8 38 -4.8 23.3
08:50 1025 30.27 855 25.25 9.3 48.7 34 -5.6 21.9
08:55 1025 30.27 855 25.25 9.3 48.7 37 -4.7 23.6
09:00 1025 30.27 855 25.25 8.8 47.8 39 -4.4 24.1
09:05 1025 30.27 855 25.25 9 48.2 34 -5.8 21.5
09:10 1025 30.27 854 25.22 9.1 48.4 34 -5.8 21.5
09:15 1025 30.27 854 25.22 9.6 49.3 33 -5.8 21.6
09:20 1025 30.27 854 25.22 10.2 50.3 32 -5.8 21.6
09:25 1025 30.27 854 25.22 10 49.9 33 -5.6 21.9
09:30 1025 30.27 854 25.22 9.9 49.8 36 -4.3 24.3
09:35 1025 30.27 854 25.22 9.2 48.6 34 -5.8 21.6
09:40 1025 30.27 854 25.22 9.5 49.1 35 -5 23
09:45 1025 30.27 854 25.22 9.2 48.6 34 -5.8 21.5
09:50 1025 30.27 854 25.22 10 49.9 33 -5.7 21.8
09:55 1025 30.27 854 25.22 10.5 51 32 -5.4 22.2
10:00 1025 30.27 854 25.22 11.3 52.3 30 -5.5 22.1
10:05 1025 30.27 854 25.22 10.9 51.6 32 -5.1 22.8
10:10 1025 30.27 854 25.22 10.1 50.1 34 -5.2 22.7
10:15 1025 30.27 854 25.22 10.6 51 31 -5.8 21.5
10:20 1025 30.27 854 25.22 11.5 52.7 30 -5.2 22.6
10:25 1025 30.27 854 25.22 11.7 53.1 31 -4.8 23.3
10:30 1025 30.27 854 25.22 11.7 53 30 -5.4 22.2
10:35 1025 30.27 854 25.22 12 53.5 29 -5.6 21.9
10:40 1025 30.27 854 25.22 11.7 53 30 -5.1 22.8
10:45 1025 30.27 854 25.22 11.9 53.4 30 -5.1 22.8
10:50 1025 30.27 854 25.22 12.3 54.1 29 -5.3 22.5
10:55 1025 30.27 854 25.22 12.9 55.2 29 -4.8 23.4
11:00 1025 30.27 854 25.22 13.5 56.3 27 -5.1 22.8
11:05 1025 30.27 854 25.22 13.6 56.5 27 -5 23.1
11:10 1025 30.27 854 25.22 12.9 55.1 27 -5.4 22.2
11:15 1025 30.27 854 25.22 13 55.5 26 -6 21.2
11:20 1025 30.27 854 25.22 13.3 56 29 -4.3 24.2
11:25 1025 30.27 854 25.22 12.8 55 24 -7.3 18.9
11:30 1024 30.24 854 25.22 13.7 56.6 26 -5.5 22.1
11:35 1024 30.24 854 25.22 13.2 55.7 24 -6.7 20
11:40 1024 30.24 854 25.22 14.1 57.3 23 -6.8 19.7
11:45 1024 30.24 854 25.22 14.1 57.3 23 -6.6 20.1
11:50 1024 30.24 854 25.22 14.5 58.1 22 -6.6 20.1
11:55 1024 30.24 854 25.22 14.4 58 22 -7 19.3
12:00 1024 30.24 854 25.22 13.8 56.9 23 -7 19.4
12:05 1024 30.24 854 25.22 14.6 58.3 23 -6.4 20.4
12:10 1024 30.24 854 25.22 14.8 58.6 22 -6.8 19.7
12:15 1024 30.24 854 25.22 14.4 57.9 24 -5.8 21.5
12:20 1024 30.24 853 25.19 14.8 58.6 23 -6.4 20.5
12:25 1024 30.24 853 25.19 14.6 58.3 24 -5.8 21.5
12:30 1024 30.24 853 25.19 14.7 58.4 23 -6.2 20.8
12:35 1024 30.24 853 25.19 14.9 58.8 25 -4.9 23.2
12:40 1024 30.24 853 25.19 15.2 59.4 23 -5.9 21.4
12:45 1024 30.24 853 25.19 15.3 59.6 24 -5.2 22.6
12:50 1024 30.24 853 25.19 15.6 60.1 23 -5.7 21.8
12:55 1024 30.24 853 25.19 15.5 59.9 23 -5.7 21.7
13:00 1024 30.24 853 25.19 15.3 59.6 23 -5.5 22.1
13:05 1024 30.24 853 25.19 15.1 59.1 24 -5.3 22.5
13:10 1024 30.24 853 25.19 16.2 61.1 22 -5.4 22.3
13:15 1024 30.24 853 25.19 15.7 60.2 22 -5.7 21.8
13:20 1024 30.24 853 25.19 15.9 60.7 23 -5.2 22.7
13:25 1024 30.24 853 25.19 16.6 61.9 23 -4.8 23.4
13:30 1024 30.24 853 25.19 16.5 61.7 23 -4.5 23.9
13:35 1024 30.24 853 25.19 15.8 60.4 24 -4.9 23.1
13:40 1024 30.24 853 25.19 15.6 60.2 23 -5.1 22.8
13:45 1024 30.24 853 25.19 16.1 61.1 23 -5.1 22.9
13:50 1024 30.24 853 25.19 16.9 62.4 22 -4.8 23.3
13:55 1024 30.24 853 25.19 17.4 63.2 22 -4.3 24.3
14:00 1024 30.24 853 25.19 16.6 61.9 23 -4.5 23.9
14:05 1024 30.24 853 25.19 17 62.6 21 -5.2 22.7
14:10 1023 30.21 853 25.19 17.3 63.2 22 -4.4 24
14:15 1023 30.21 853 25.19 17.4 63.3 21 -5.2 22.7
14:20 1023 30.21 853 25.19 17.2 63 22 -4.8 23.3
14:25 1023 30.21 853 25.19 16.6 61.9 22 -5.4 22.3
14:30 1023 30.21 852 25.16 16.7 62.1 22 -5.2 22.7
14:35 1023 30.21 852 25.16 17 62.7 22 -4.6 23.7
14:40 1023 30.21 852 25.16 17.5 63.4 21 -4.8 23.4
14:45 1023 30.21 852 25.16 16.7 62.1 23 -4.5 23.9
14:50 1023 30.21 852 25.16 17.2 63 22 -4.8 23.3
14:55 1023 30.21 852 25.16 17.2 62.9 21 -5 23
15:00 1023 30.21 852 25.16 17.6 63.6 20 -5.7 21.7
15:05 1023 30.21 852 25.16 17.7 63.9 21 -4.9 23.2
15:10 1023 30.21 852 25.16 17.2 63 21 -5.3 22.5
15:15 1023 30.21 852 25.16 17.7 63.8 20 -5.4 22.3
15:20 1023 30.21 852 25.16 18.4 65.1 19 -5.5 22
15:25 1023 30.21 852 25.16 18.4 65 20 -5.2 22.7
15:30 1023 30.21 852 25.16 18.4 65.1 20 -5 22.9
15:35 1023 30.21 852 25.16 18.4 65.1 20 -4.8 23.3
15:40 1023 30.21 852 25.16 18.1 64.5 19 -5.5 22.1
15:45 1023 30.21 852 25.16 18.8 65.9 19 -5.1 22.8
15:50 1023 30.21 852 25.16 18.9 65.9 19 -4.9 23.1
15:55 1022 30.18 852 25.16 18.9 65.9 20 -4.4 24.1
16:00 1022 30.18 852 25.16 19 66.1 20 -4.4 24
16:05 1023 30.21 852 25.16 17.7 63.9 20 -5.3 22.4
16:10 1022 30.18 852 25.16 18.6 65.5 19 -5.7 21.8
16:15 1022 30.18 852 25.16 19.2 66.6 18 -5.4 22.2
16:20 1022 30.18 852 25.16 18.6 65.6 20 -4.5 23.9
16:25 1022 30.18 852 25.16 17.6 63.6 21 -5.1 22.8
16:30 1022 30.18 852 25.16 18.4 65 19 -5.5 22.1
16:35 1022 30.18 852 25.16 18.6 65.6 19 -5 22.9
16:40 1022 30.18 852 25.16 19.4 66.8 19 -4.7 23.5
16:45 1022 30.18 852 25.16 18.1 64.5 23 -3.1 26.4
16:50 1022 30.18 852 25.16 17.6 63.7 21 -5 23.1
16:55 1022 30.18 852 25.16 18.1 64.6 20 -4.9 23.1
17:00 1022 30.18 852 25.16 18.5 65.3 20 -4.8 23.3
17:05 1022 30.18 852 25.16 18.6 65.5 20 -5 23.1
17:10 1022 30.18 852 25.16 19.2 66.5 19 -4.5 23.8
17:15 1022 30.18 851 25.13 19.1 66.4 19 -4.7 23.5
17:20 1022 30.18 851 25.13 18.9 66 20 -4.6 23.7
17:25 1022 30.18 851 25.13 19.3 66.7 19 -4.8 23.4
17:30 1022 30.18 851 25.13 19.8 67.6 20 -3.8 25.1
17:35 1022 30.18 851 25.13 19 66.2 20 -4.3 24.2
17:40 1022 30.18 851 25.13 19.2 66.5 19 -5 23
17:45 1022 30.18 851 25.13 19 66.1 21 -3.7 25.3
17:50 1022 30.18 851 25.13 18.8 65.8 20 -4.3 24.2
17:55 1022 30.18 851 25.13 18.6 65.6 20 -4.3 24.2
18:00 1022 30.18 851 25.13 18.7 65.6 21 -4.1 24.7
18:05 1022 30.18 851 25.13 18.7 65.6 21 -3.7 25.3
18:10 1022 30.18 851 25.13 18.7 65.6 21 -3.9 25.1
18:15 1022 30.18 851 25.13 18.6 65.4 22 -3.5 25.8
18:20 1022 30.18 851 25.13 18.6 65.4 22 -3.7 25.3
18:25 1022 30.18 851 25.13 18.5 65.3 22 -3.6 25.6
18:30 1022 30.18 851 25.13 18.5 65.3 22 -3.3 26
18:35 1022 30.18 851 25.13 18.6 65.4 22 -3.5 25.7
18:40 1022 30.18 851 25.13 18.7 65.6 22 -3.4 25.9
18:45 1022 30.18 851 25.13 18.7 65.7 21 -3.8 25.2
18:50 1022 30.18 851 25.13 18.7 65.7 22 -3.2 26.2
18:55 1022 30.18 851 25.13 18.7 65.6 23 -3 26.7
19:00 1022 30.18 851 25.13 18.5 65.3 23 -2.9 26.8
19:05 1022 30.18 851 25.13 18.4 65.1 24 -2.5 27.5
19:10 1022 30.18 851 25.13 18.2 64.8 22 -3.7 25.3
19:15 1022 30.18 851 25.13 17.6 63.7 23 -3.6 25.4
19:20 1022 30.18 851 25.13 17.4 63.3 23 -3.6 25.5
19:25 1022 30.18 851 25.13 17.3 63.2 24 -3.5 25.8
19:30 1022 30.18 851 25.13 17.3 63.2 26 -2.5 27.5
19:35 1022 30.18 851 25.13 17.3 63.2 27 -1.8 28.8
19:40 1022 30.18 851 25.13 17.2 63 27 -1.6 29.1
19:45 1022 30.18 851 25.13 17.1 62.7 28 -1.5 29.4
19:50 1022 30.18 851 25.13 16.9 62.5 28 -1.4 29.4
19:55 1022 30.18 851 25.13 16.5 61.8 30 -1 30.1
20:00 1022 30.18 851 25.13 16 60.7 31 -1.1 30.1
20:05 1022 30.18 852 25.16 15.5 60 32 -0.9 30.4
20:10 1022 30.18 852 25.16 15.2 59.3 36 0.3 32.6
20:15 1023 30.21 852 25.16 14.1 57.4 37 -0.3 31.4
20:20 1023 30.21 852 25.16 14.1 57.5 36 -0.5 31.2
20:25 1023 30.21 852 25.16 14.2 57.5 37 -0.3 31.5
20:30 1023 30.21 852 25.16 13.8 56.9 37 -0.7 30.8
20:35 1023 30.21 852 25.16 13.9 56.9 35 -1.2 29.9
20:40 1023 30.21 852 25.16 14 57.1 35 -1.1 30
20:45 1023 30.21 852 25.16 14.1 57.3 35 -1.3 29.7
20:50 1023 30.21 852 25.16 13.7 56.6 37 -0.8 30.5
20:55 1023 30.21 852 25.16 13.4 56.2 39 -0.3 31.4
21:00 1023 30.21 852 25.16 13.3 55.9 38 -0.7 30.8
21:05 1023 30.21 852 25.16 13.2 55.7 39 -0.6 31
21:10 1023 30.21 852 25.16 12.8 55 42 0.2 32.3
21:15 1023 30.21 852 25.16 12.4 54.2 41 -0.3 31.4
21:20 1023 30.21 852 25.16 12.2 53.9 41 -0.6 30.9
21:25 1023 30.21 852 25.16 12.1 53.8 41 -0.8 30.5
21:30 1023 30.21 852 25.16 12 53.7 41 -0.7 30.7
21:35 1023 30.21 852 25.16 11.8 53.3 42 -0.5 31.1
21:40 1023 30.21 852 25.16 11.6 52.9 43 -0.6 30.9
21:45 1023 30.21 852 25.16 11.5 52.6 43 -0.5 31.1
21:50 1023 30.21 852 25.16 11.3 52.4 43 -0.7 30.8
21:55 1023 30.21 853 25.19 11.2 52.2 44 -0.7 30.7
22:00 1023 30.21 853 25.19 11.5 52.6 40 -1.5 29.3
22:05 1024 30.24 853 25.19 11.8 53.2 41 -0.8 30.5
22:10 1024 30.24 853 25.19 11.7 53.1 41 -1 30.2
22:15 1024 30.24 853 25.19 11.7 53.1 41 -0.9 30.4
22:20 1024 30.24 853 25.19 11.5 52.7 43 -0.7 30.7
22:25 1024 30.24 853 25.19 10.9 51.7 45 -0.5 31
22:30 1024 30.24 853 25.19 10.6 51.1 46 -0.5 31.1
22:35 1024 30.24 853 25.19 10.3 50.6 47 -0.6 31
22:40 1024 30.24 853 25.19 10.5 50.9 44 -1.3 29.7
22:45 1024 30.24 853 25.19 11 51.8 42 -1.5 29.3
22:50 1023 30.21 853 25.19 11.4 52.4 41 -1.4 29.6
22:55 1023 30.21 853 25.19 11.4 52.6 42 -1 30.2
23:00 1023 30.21 853 25.19 11.2 52.2 43 -0.8 30.6
23:05 1024 30.24 853 25.19 10.9 51.6 45 -0.6 30.8
23:10 1024 30.24 853 25.19 10.7 51.2 44 -1.1 29.9
23:15 1024 30.24 853 25.19 10.7 51.3 43 -1.2 29.9
23:20 1024 30.24 853 25.19 10.9 51.5 43 -1.2 29.8
23:25 1024 30.24 853 25.19 11.1 51.9 43 -1 30.2
23:30 1024 30.24 853 25.19 10.5 50.9 47 -0.2 31.6
23:35 1024 30.24 853 25.19 9.9 49.8 49 -0.4 31.3
23:40 1024 30.24 853 25.19 9.7 49.5 49 -0.5 31
23:45 1024 30.24 853 25.19 9.5 49.2 49 -0.6 30.8
23:50 1024 30.24 853 25.19 9.6 49.2 49 -0.7 30.8
23:55 1024 30.24 853 25.19 9.6 49.3 49 -0.6 30.8
24:00 1024 30.24 853 25.19 9.8 49.7 46 -1.2 29.9